Home > Weather > Vincennes > Past weeks

Flag for USA Past Weather in Vincennes, Indiana, USA — Yesterday and Last 2 Weeks

Now
70 °F

Clear.


Feels Like: 65 °F
Forecast: 70 / 88 °F
Wind: 7 mph from South

Location: Lawrenceville-Vincennes International Airport

Current Time: Aug 24, 2016 at 6:33:09 AM

Latest Report: Aug 24, 2016 at 5:53 AM


Visibility: 10 mi

Pressure: 30.11 "Hg

Humidity: 93%

Dew Point: 68 °F

Location of VincennesLocation

Past Weather in Vincennes — Graph

°F

Vincennes Temperature Yesterday

Maximum temperature yesterday: 82 °F (at 2:53 PM)
Minimum temperature yesterday: 59 °F (at 5:53 AM)
Average temperature yesterday: 71 °F

High & Low Weather Summary for the Past Weeks

 TemperatureHumidityPressure
High92 °F (Aug 11, 3:53 PM)100% (Aug 13, 10:57 AM)30.26 "Hg (Aug 13, 10:57 AM)
Low58 °F (Aug 22, 6:03 AM)44% (Aug 22, 4:53 PM)29.69 "Hg (Aug 20, 4:53 PM)
Average76 °F85%30.01 "Hg
* Reported Aug 9 4:53 AM — Aug 24 4:53 AM, Vincennes, Weather by CustomWeather, © 2016

Note: Actual official high and low records may vary slightly from our data, if they occured in-between our weather recording intervals... More about our weather records

Advertising

Vincennes Weather History for the Previous 24 Hours

Scroll right to see more
 ConditionsComfort  
Time TempWeatherWind HumidityBarometerVisibility
4:53 AM
Wed, Aug 24
70 °FClear.6 mph90%30.13 "Hg10 mi
3:53 AM68 °FClear.5 mph93%30.13 "Hg10 mi
2:53 AM70 °FClear.6 mph87%30.13 "Hg10 mi
1:53 AM70 °FClear.5 mph87%30.14 "Hg10 mi
12:53 AM71 °FClear.6 mph84%30.14 "Hg10 mi
11:53 PM
Tue, Aug 23
70 °FPassing clouds.3 mph90%30.15 "Hg10 mi
10:53 PM71 °FClear.5 mph84%30.15 "Hg10 mi
9:53 PM72 °FClear.6 mph84%30.15 "Hg10 mi
8:53 PM74 °FPassing clouds.3 mph76%30.15 "Hg10 mi
7:53 PM76 °FOvercast.5 mph74%30.17 "Hg10 mi
6:53 PM78 °FSunny.6 mph69%30.18 "Hg10 mi
5:53 PM80 °FSunny.6 mph58%30.18 "Hg10 mi
4:53 PM81 °FSunny.6 mph53%30.18 "Hg10 mi
3:53 PM82 °FSunny.9 mph51%30.19 "Hg10 mi
2:53 PM82 °FSunny.10 mph49%30.21 "Hg10 mi
1:53 PM81 °FSunny.12 mph51%30.22 "Hg10 mi
12:53 PM80 °FSunny.10 mph52%30.24 "Hg10 mi
11:53 AM79 °FSunny.10 mph56%30.26 "Hg10 mi
10:53 AM75 °FSunny.8 mph69%30.26 "Hg10 mi
9:53 AM72 °FSunny.8 mph76%30.25 "Hg10 mi
8:53 AM66 °FSunny.No wind90%30.24 "Hg10 mi
7:53 AM61 °FClear.No wind97%30.23 "Hg7 mi
6:53 AM59 °FClear.3 mph96%30.22 "Hg9 mi
Weather by CustomWeather, © 2016

See weather overviewHow to use our weather pages